Theta_e
336 340 342 344 344 344 350 353 355 354 355 356 357 356 355 356 358 361 361 363 365 366 367 367 366 365 363 362 363 363 362 361 361 360 361 362 363 362 362 361 360 360 357 358 361 357 360 362 362 363 364 366 367 367 369 371 370 367 369 370 369 367 366
336 335 341 345 345 344 353 355 355 355 355 356 358 358 356 357 359 359 361 364 366 366 366 367 367 365 364 364 364 364 363 362 362 362 362 363 366 365 363 363 361 361 361 359 359 362 363 363 362 363 363 366 366 368 367 369 370 369 366 368 367 367 368
334 336 340 340 342 347 353 355 356 355 356 356 357 357 357 359 360 361 363 364 366 367 367 368 368 367 366 365 364 363 362 362 362 361 361 360 364 363 365 365 362 361 361 361 360 360 361 364 366 365 364 364 363 366 367 368 370 368 367 368 367 366 368
336 338 341 342 345 349 353 354 356 355 356 357 357 358 358 361 362 364 364 366 366 367 366 367 367 365 364 365 363 363 362 362 363 361 361 363 363 365 364 364 365 362 362 360 358 358 358 362 365 366 367 365 363 363 366 366 365 368 367 368 366 365 367
332 335 338 340 344 348 350 353 354 356 356 357 358 360 360 361 361 363 364 365 366 366 367 367 366 365 365 365 362 361 361 362 362 362 363 363 365 366 364 362 363 361 361 362 361 360 362 362 361 364 365 366 363 364 364 365 364 366 367 368 366 364 364
327 331 336 338 342 343 342 351 354 355 355 355 357 359 359 360 360 361 363 365 366 367 369 369 367 365 364 363 361 361 363 363 364 365 364 364 365 365 364 364 363 363 358 361 360 360 360 361 361 362 364 363 361 358 361 364 364 364 366 367 366 363 360
327 329 333 339 339 338 341 349 352 355 356 355 357 360 360 359 360 361 362 363 365 366 366 366 365 365 364 363 362 363 362 361 363 363 363 364 365 365 366 365 365 363 360 363 360 361 360 360 363 363 363 361 362 358 360 364 363 364 365 367 366 365 364
328 329 332 337 340 341 344 345 351 354 355 355 356 357 358 359 360 360 361 362 363 364 365 365 364 364 364 364 362 362 362 362 363 363 364 363 364 365 365 365 364 365 364 359 361 362 361 362 361 362 362 361 360 362 359 364 366 361 362 365 365 365 363
328 332 331 333 336 338 340 345 348 352 355 354 354 356 358 358 358 359 360 361 362 363 364 364 363 364 365 363 363 363 364 363 364 364 364 362 364 363 363 364 366 366 364 360 360 362 362 363 362 364 364 363 362 364 362 365 363 363 362 363 365 365 362
329 331 335 335 336 336 340 342 350 354 355 354 355 356 357 358 359 360 360 361 362 361 363 363 363 362 364 363 363 365 365 364 364 362 362 362 362 362 362 363 366 365 364 361 359 360 363 364 364 365 366 363 363 364 364 364 364 364 362 362 364 365 365
326 333 335 334 336 336 339 340 348 355 355 358 356 354 357 357 358 359 359 360 360 361 363 363 364 363 364 364 363 362 363 363 362 361 362 361 360 361 361 362 363 365 364 362 359 359 362 363 365 367 367 363 363 365 366 365 366 366 361 361 364 366 365
334 337 336 336 338 337 337 346 353 357 359 358 355 355 358 359 358 359 360 360 361 361 362 361 362 363 364 363 362 363 364 363 361 361 361 361 360 360 362 361 360 363 364 363 360 359 361 363 363 365 367 368 366 366 368 368 367 367 365 360 361 364 364
327 337 337 334 338 337 346 358 356 356 359 355 354 355 357 358 358 358 360 361 361 362 361 362 362 363 364 363 362 363 364 363 361 361 362 362 360 361 362 360 358 359 362 363 360 358 358 362 364 364 366 368 368 367 369 369 368 369 368 364 362 363 364
335 330 338 343 346 347 346 350 357 358 357 356 355 354 356 358 357 358 359 359 361 361 360 361 361 362 364 363 362 364 364 365 364 361 363 364 365 363 361 359 358 359 361 363 361 358 358 359 362 363 364 367 368 369 370 371 369 371 371 368 364 361 364
324 325 330 331 338 343 345 347 357 358 356 356 355 354 355 356 357 359 360 361 362 360 361 363 361 362 363 364 363 366 368 368 366 364 365 365 366 363 362 361 361 361 362 365 362 359 358 358 359 363 364 366 367 368 367 368 368 369 369 369 366 363 361
325 324 326 328 335 339 345 348 353 359 358 360 356 356 353 355 358 357 358 359 359 361 361 362 362 363 363 364 365 368 369 369 370 367 367 366 366 367 365 363 363 360 360 363 363 364 362 361 359 360 363 364 366 367 366 366 369 364 353 358 368 365 360
331 333 333 334 338 338 344 346 350 357 360 360 358 356 354 356 358 358 357 359 359 360 361 362 364 364 365 365 367 369 370 370 370 368 368 368 368 368 368 368 366 367 367 366 366 367 368 362 358 357 360 363 365 366 366 364 365 350 340 342 350 365 364
332 334 335 336 339 342 345 344 347 351 356 357 356 356 355 358 357 357 356 358 358 358 360 361 362 363 366 366 368 370 371 370 370 369 369 369 369 370 369 368 367 368 367 364 365 368 365 362 361 363 359 360 363 364 365 365 354 337 337 339 339 352 367
334 334 334 338 340 344 346 346 345 351 354 356 355 353 354 355 355 358 358 360 360 361 360 361 362 364 366 367 369 370 371 372 371 370 369 370 371 371 370 369 368 366 365 363 366 367 367 367 362 362 361 359 363 361 364 365 343 333 334 336 336 337 355
340 339 338 339 344 341 345 354 357 357 352 359 358 354 355 357 355 358 359 360 362 361 364 364 364 365 365 368 369 370 372 372 372 370 370 371 372 372 370 369 368 368 367 367 368 368 367 364 365 365 367 363 363 366 363 365 341 331 330 333 333 335 343
342 343 344 345 347 349 353 356 357 359 358 355 354 358 356 353 355 359 359 361 360 362 366 363 364 365 366 366 369 370 371 371 372 371 372 372 372 372 371 370 370 369 368 366 366 367 368 366 366 366 366 364 362 363 362 360 333 328 327 328 329 332 339
340 342 343 345 347 350 353 354 357 358 360 361 351 353 357 354 354 355 358 360 360 361 363 365 366 365 367 367 368 369 371 370 370 371 372 372 372 371 370 370 370 370 369 367 365 367 368 369 368 367 367 366 364 361 361 360 326 327 326 325 327 329 354
339 342 344 347 348 349 353 356 357 359 361 360 356 349 355 355 354 355 357 359 359 362 362 363 364 364 366 366 368 369 370 370 369 371 371 372 371 370 370 370 370 370 371 367 365 364 365 368 366 369 367 367 367 363 362 362 336 324 322 323 323 332 360
340 343 345 347 350 351 353 355 358 359 357 355 354 351 358 357 355 357 360 359 361 361 360 360 361 364 366 366 368 369 371 371 371 371 370 371 370 370 370 370 371 370 371 368 365 360 363 366 366 367 368 366 366 365 364 362 346 319 320 321 320 339 362
338 340 344 347 349 349 350 354 357 356 358 356 350 351 359 362 357 354 357 359 359 360 358 358 362 364 366 366 368 370 370 371 371 371 370 370 370 370 370 370 371 370 371 368 366 364 363 364 364 365 367 366 366 362 362 363 348 317 319 318 318 340 365
336 340 343 347 350 351 353 355 356 356 355 352 352 352 359 359 356 356 357 358 359 358 358 360 363 367 369 368 369 370 370 371 372 372 370 371 371 372 371 371 370 370 369 367 367 364 361 360 361 362 362 363 364 364 365 365 363 335 316 316 316 326 365
336 339 343 345 348 350 351 354 354 356 355 355 357 352 355 358 356 356 359 360 360 359 359 362 366 368 369 369 368 369 370 370 371 370 370 371 370 370 369 369 369 368 368 367 365 364 363 360 360 358 361 361 363 362 363 364 367 345 315 315 316 320 337
333 336 341 346 348 350 352 351 354 357 356 356 353 354 356 357 360 361 362 360 359 361 362 365 367 368 370 369 368 368 368 369 371 371 369 372 372 371 369 370 369 368 367 366 366 366 365 365 363 359 359 361 362 364 363 363 357 364 318 316 314 318 322
329 331 336 342 347 351 353 351 353 354 354 352 353 355 355 355 360 360 362 359 363 364 365 366 367 369 370 370 367 369 370 369 369 369 368 369 371 370 368 369 369 369 369 368 367 366 365 366 365 363 361 362 362 364 369 374 370 345 336 315 313 314 318
329 332 336 339 345 351 353 354 355 354 353 352 354 356 357 359 360 361 361 362 366 366 366 368 368 369 369 368 368 367 367 367 369 370 369 370 371 371 370 369 368 368 368 368 365 363 363 364 365 363 360 360 362 365 368 373 371 344 332 326 313 313 315
328 330 333 337 343 350 353 354 354 354 354 354 358 360 362 360 360 361 363 365 369 368 366 367 368 368 368 366 366 367 368 368 369 369 368 370 371 370 368 369 368 366 367 368 365 363 363 364 365 364 362 362 362 363 364 366 367 370 339 323 316 314 313
327 330 334 337 342 346 352 355 355 355 357 356 358 360 364 362 360 362 364 368 368 367 367 367 367 367 367 367 366 365 366 366 366 368 367 368 369 369 369 368 365 365 366 365 364 364 363 363 361 360 362 361 363 362 363 365 366 368 359 331 323 319 315
326 330 333 334 337 342 347 354 353 355 356 357 357 356 355 358 359 364 367 368 366 365 368 368 368 367 367 366 365 367 366 366 364 365 365 367 367 368 368 368 367 365 364 364 362 363 362 362 361 360 359 361 362 363 364 365 367 366 365 354 344 341 333
326 329 332 335 336 339 342 347 350 353 356 357 361 362 360 360 363 365 366 366 365 364 369 368 368 366 367 366 365 365 365 365 366 365 364 365 366 365 365 366 366 364 364 364 362 361 361 361 359 360 361 360 361 363 363 363 365 366 369 363 355 352 346
325 329 332 334 335 336 339 342 346 350 354 356 360 362 366 363 362 365 366 366 366 370 369 367 370 369 369 367 367 365 367 366 365 365 365 365 366 367 381 375 365 365 366 369 368 367 363 362 363 363 363 363 363 362 361 365 363 366 346 370 339 353 355
324 327 331 334 335 336 336 338 341 342 346 352 356 360 361 364 365 366 364 366 367 369 367 369 369 368 368 368 367 368 365 365 364 365 365 366 363 356 335 308 300 317 367 361 319 306 307 329 362 360 368 365 365 358 364 364 372 319 321 322 326 327 329
323 325 329 333 333 333 333 335 338 339 340 345 352 355 358 360 362 364 366 367 369 369 369 369 365 364 365 367 366 365 366 366 366 366 368 368 368 365 357 352 336 300 297 309 310 302 296 295 298 305 316 366 364 337 309 312 306 305 307 308 309 312 318
325 326 329 332 331 332 332 332 334 336 338 342 349 351 352 354 356 359 363 365 371 368 369 368 365 363 364 365 367 369 369 366 367 367 367 366 369 371 364 363 356 344 306 297 302 299 296 296 295 296 301 307 330 353 348 314 304 305 306 305 305 307 310
Wind_Speed
16 16 20 18 19 20 20 20 21 20 21 21 21 22 22 20 19 18 19 20 22 21 21 19 20 18 19 17 17 16 14 14 13 13 13 12 10 11 11 11 11 10 10 9 9 9 9 9 8 9 8 9 9 8 7 7 6 5 5 5 4 4 4
17 19 19 16 16 18 19 20 20 19 20 20 20 22 21 21 20 20 19 21 23 23 22 20 20 19 19 17 16 16 16 15 14 12 12 11 10 10 11 11 10 10 10 9 8 8 9 10 9 9 9 9 9 8 8 8 7 7 6 6 6 5 5
20 18 18 20 19 18 18 19 20 19 20 20 21 21 21 21 22 22 20 21 22 22 21 21 21 19 19 17 17 17 17 16 15 15 15 14 14 14 12 11 11 10 11 10 9 9 10 10 10 10 10 9 9 9 8 8 8 7 7 6 6 6 5
17 17 17 17 16 17 19 20 22 20 19 21 22 23 23 22 22 20 20 21 22 22 23 22 21 20 19 19 18 17 18 17 16 16 16 14 14 13 12 11 10 10 10 11 10 9 10 10 11 10 11 9 9 10 9 9 9 8 8 7 6 6 6
17 20 17 17 18 14 16 18 20 20 22 23 22 21 22 22 22 20 20 21 23 24 24 24 20 19 17 18 15 15 17 19 17 16 15 14 13 13 12 13 12 12 11 11 11 10 8 10 11 11 10 10 10 9 10 10 9 9 8 8 7 7 7
17 16 15 17 15 15 16 19 21 23 22 23 23 23 22 24 22 23 22 22 21 21 20 21 20 19 19 19 17 16 17 17 16 15 15 14 13 13 13 13 13 13 13 12 11 11 11 11 11 11 12 11 11 11 11 11 10 10 9 8 8 7 7
17 18 15 16 19 19 20 19 20 22 22 21 21 20 19 21 23 22 21 22 22 23 24 24 22 21 19 18 18 18 19 19 18 18 16 16 15 14 13 13 12 13 12 11 11 11 12 12 11 11 12 12 11 11 10 10 10 9 9 9 8 8 8
17 17 18 18 18 19 15 16 18 21 19 18 19 20 22 21 21 22 23 22 22 22 22 23 22 20 19 18 18 20 20 20 19 18 15 17 16 15 14 13 13 12 12 13 12 12 13 13 12 11 12 12 12 11 11 10 10 11 10 10 9 10 8
18 14 17 18 19 18 18 19 20 20 21 21 21 21 22 21 21 22 23 22 21 22 23 23 22 20 18 18 18 20 19 19 18 18 18 18 16 17 16 15 14 13 13 13 13 12 12 13 12 11 12 11 10 10 10 10 11 10 10 10 10 11 10
15 15 16 17 16 16 19 20 19 16 19 19 18 19 21 21 20 20 20 21 21 23 24 23 21 20 20 19 20 21 20 19 18 20 19 19 16 18 17 15 14 14 14 14 13 13 12 12 13 12 11 12 11 11 11 11 11 11 11 11 11 11 11
13 15 14 17 17 18 16 17 16 14 17 17 18 20 20 20 20 20 21 21 22 22 23 21 20 21 21 21 22 22 20 21 20 20 20 20 17 19 18 17 16 14 15 15 14 14 13 12 12 12 13 12 12 12 12 12 12 12 12 11 11 11 11
5 5 14 14 15 16 17 15 15 15 16 16 19 19 18 19 20 20 20 21 20 20 21 21 20 21 21 21 21 21 22 21 20 21 21 20 19 19 18 17 16 15 15 15 15 14 14 14 13 13 13 13 13 13 13 12 12 12 12 12 12 11 11
4 3 3 13 10 11 11 11 18 18 17 19 20 19 18 19 19 19 18 19 20 19 19 20 19 20 20 21 21 20 21 21 21 20 20 19 18 17 17 17 17 17 16 15 15 15 15 15 15 13 14 14 13 14 13 13 12 11 12 11 11 12 12
6 4 5 4 6 6 6 7 14 15 17 18 18 18 17 19 19 19 18 19 19 19 19 18 19 20 20 20 19 19 21 20 20 20 18 18 16 16 17 17 16 16 15 14 15 16 16 16 16 14 14 14 14 13 13 13 12 12 12 12 11 11 12
5 8 8 8 8 9 10 11 11 15 17 17 19 19 19 18 18 17 17 18 18 18 20 18 18 20 20 19 19 18 19 18 17 17 17 17 16 16 16 16 15 14 14 14 14 14 16 15 15 15 14 14 14 14 13 13 13 12 12 12 13 12 13
5 6 12 12 10 8 8 11 12 13 15 16 18 18 19 17 17 19 19 19 20 19 18 18 18 18 19 19 18 17 18 17 15 16 16 16 16 15 15 15 15 15 15 15 15 13 13 13 13 15 15 15 15 14 13 12 11 12 16 14 12 13 12
6 9 11 11 9 2 6 9 10 12 14 15 16 17 16 16 17 18 20 19 19 18 18 19 18 18 18 18 17 17 17 17 16 16 16 16 15 15 15 14 13 13 13 14 14 13 12 12 15 15 15 15 15 15 13 12 12 16 17 17 16 13 12
8 7 8 7 7 7 8 5 9 12 15 17 18 18 17 15 17 18 19 19 20 20 19 19 19 19 17 17 17 17 18 17 17 17 16 16 16 16 15 14 13 13 14 14 15 13 13 14 14 13 14 14 15 15 14 13 13 18 18 18 17 14 11
10 8 8 8 8 8 8 9 7 11 15 15 16 17 19 18 18 17 18 18 18 17 18 18 19 18 17 17 17 17 17 17 18 17 17 17 16 16 15 15 14 14 15 16 14 13 13 13 14 14 13 13 13 14 14 13 14 18 20 19 18 17 13
7 8 9 9 8 8 11 8 8 10 8 14 15 18 18 18 18 17 17 15 15 17 15 16 17 17 18 17 17 17 17 17 17 17 17 17 16 16 16 16 15 15 14 13 13 13 14 14 14 13 13 12 12 11 13 12 14 19 19 19 19 18 13
8 7 8 8 9 9 9 10 10 12 13 13 15 16 16 17 17 16 17 17 18 18 15 16 16 17 17 17 17 17 19 19 17 17 16 16 17 16 16 16 15 15 14 14 14 14 13 14 14 13 14 14 14 13 13 11 18 20 20 19 20 18 13
10 11 11 11 12 11 10 10 11 11 11 12 13 15 16 18 18 18 18 18 18 17 17 16 16 17 17 17 18 18 19 19 19 17 16 17 16 17 17 16 15 15 13 13 14 13 12 12 13 14 14 14 15 14 14 11 19 20 21 21 20 18 11
12 12 13 13 13 14 13 12 12 12 11 12 14 14 17 17 18 18 18 18 18 18 17 17 17 18 18 18 18 19 19 19 20 18 17 17 17 17 17 16 15 14 13 13 13 14 14 13 14 12 14 15 14 15 12 13 15 20 21 20 21 15 11
13 13 14 14 14 14 14 13 12 12 11 11 13 15 13 17 18 17 16 18 18 18 19 20 20 19 19 19 19 19 18 18 18 17 17 17 17 17 16 16 14 14 13 14 14 14 14 13 12 13 14 15 16 16 14 13 14 21 21 21 21 18 13
14 15 15 15 15 16 16 14 14 15 16 12 13 14 13 15 18 19 18 18 19 20 21 21 20 20 20 20 19 18 18 17 17 18 18 17 17 16 16 16 14 14 13 13 13 13 12 12 12 13 13 15 16 15 17 14 13 21 21 21 22 18 12
16 17 16 15 15 15 16 16 15 14 14 13 12 13 14 16 18 19 17 19 20 21 21 21 21 20 18 18 18 17 17 16 17 17 17 17 16 15 14 14 13 14 14 13 12 12 13 13 13 14 13 13 15 13 16 15 9 17 22 22 22 22 14
15 16 16 16 15 16 15 14 13 13 12 10 10 12 14 15 17 18 17 18 19 21 21 20 17 17 17 17 18 17 18 16 17 18 17 16 16 15 14 14 14 14 13 13 12 12 12 14 13 14 13 13 13 13 15 14 13 14 22 22 23 23 18
17 16 15 15 16 16 14 13 13 13 10 10 10 12 14 15 14 14 15 17 19 20 18 16 16 17 17 17 18 17 17 17 16 16 15 15 14 14 14 13 13 13 14 12 12 12 12 11 11 12 12 12 12 12 13 13 16 10 19 22 23 23 22
17 16 16 16 15 15 15 13 13 11 10 10 11 12 14 16 15 15 14 17 18 16 15 16 16 17 16 16 16 16 17 16 17 15 13 14 15 15 15 13 13 13 12 12 11 12 12 12 11 11 11 11 10 11 10 8 11 15 15 20 22 24 22
16 16 15 16 15 15 16 16 13 11 9 10 9 11 11 12 13 13 15 17 13 13 13 14 15 15 15 15 15 16 16 15 16 15 13 14 14 14 14 13 13 12 11 11 11 12 12 11 11 11 12 11 10 10 9 9 8 12 19 17 22 21 23
16 16 14 14 15 16 16 13 7 8 9 9 8 9 10 12 13 14 15 13 12 12 13 14 15 15 15 15 15 15 14 14 13 14 13 13 14 14 13 14 13 12 11 12 12 11 11 11 11 11 10 10 11 10 11 12 12 9 15 23 22 22 23
16 15 14 14 14 17 16 12 5 4 6 6 9 8 8 10 13 14 13 13 12 13 12 14 14 14 14 15 14 14 14 15 14 14 13 14 13 13 12 13 13 12 11 12 12 11 11 11 11 11 11 11 10 10 11 11 10 10 10 13 19 19 23
15 14 13 14 15 15 13 14 6 3 2 4 2 9 11 12 12 12 12 12 14 14 13 14 13 13 13 13 13 14 14 15 13 13 13 14 12 12 12 12 12 12 12 12 12 12 12 12 12 12 11 11 11 10 10 10 10 11 10 11 10 9 12
14 15 13 11 12 14 13 13 13 11 8 3 3 3 5 9 9 10 11 13 14 14 13 13 13 13 13 14 13 13 13 13 13 14 12 13 12 12 12 12 12 12 13 13 12 12 12 12 11 11 12 11 11 11 11 11 12 11 10 10 10 10 9
13 13 12 11 12 13 11 12 14 14 12 9 6 6 4 4 7 8 12 12 13 12 14 13 13 13 14 14 13 12 12 12 13 12 12 12 12 7 2 5 11 12 12 12 8 9 12 13 11 11 11 11 11 12 12 10 12 12 11 10 13 13 12
12 12 11 10 8 11 13 13 14 14 14 11 9 5 5 5 1 4 9 10 11 12 12 12 13 13 14 13 12 12 12 11 12 12 11 12 12 9 6 11 14 11 1 5 8 13 13 8 4 3 6 11 5 3 7 10 4 6 11 17 19 16 18
12 12 11 11 13 14 14 14 14 14 15 13 9 8 8 8 7 5 2 4 8 10 11 12 12 12 13 12 11 12 12 10 11 11 10 11 10 9 9 7 9 15 15 12 10 11 13 12 10 9 9 3 6 4 13 12 12 14 14 15 15 15 18
10 8 9 8 12 13 14 15 15 15 15 12 10 10 10 10 9 6 4 4 4 9 10 12 11 11 11 10 10 10 10 10 10 11 11 10 10 10 10 8 7 6 12 12 12 14 13 12 11 10 10 11 7 8 5 7 11 14 14 14 14 13 15
Wind_Direction
195 190 196 194 194 195 193 186 185 185 185 184 186 188 187 186 185 181 181 180 181 181 182 180 180 180 182 181 181 181 186 189 193 198 203 206 207 204 198 197 196 198 199 198 197 198 194 198 197 199 191 193 200 197 200 197 202 203 201 203 215 235 223
201 205 189 181 195 207 194 184 184 186 186 185 186 188 188 186 185 185 183 181 181 181 180 181 180 180 180 179 180 182 185 191 194 195 199 202 205 207 204 200 198 195 203 208 193 197 191 191 195 190 193 192 197 196 199 198 199 201 204 200 209 212 213
194 211 191 182 188 198 189 183 185 188 187 187 187 187 189 186 186 184 182 181 181 181 180 181 181 178 179 179 178 181 185 190 193 195 198 200 200 203 202 199 198 196 199 203 201 191 192 189 190 190 193 192 196 197 200 200 198 201 208 206 208 209 214
191 196 186 178 191 194 189 185 185 187 189 190 190 190 189 186 185 183 183 182 181 181 181 182 183 180 178 178 179 181 186 190 193 195 198 201 196 200 198 197 198 199 195 198 200 198 190 190 187 192 192 191 192 196 198 201 200 200 205 208 213 216 215
197 199 199 180 188 188 194 188 185 188 190 192 191 191 190 187 186 185 185 184 183 184 183 181 182 179 177 178 179 182 186 189 192 195 198 199 197 195 198 198 194 201 195 196 197 194 194 186 192 190 191 194 193 196 196 195 200 196 199 203 211 215 215
198 200 196 182 174 185 203 203 189 189 191 190 189 189 191 189 188 188 186 184 185 184 182 181 182 179 179 181 181 182 184 188 191 195 195 196 195 193 196 198 195 196 196 196 193 192 193 192 193 189 192 193 200 197 197 193 196 195 195 200 208 216 219
201 200 196 185 182 184 196 205 196 190 191 191 189 187 190 190 191 190 187 186 185 183 183 184 183 181 182 180 182 180 183 186 189 192 194 195 194 195 193 195 198 194 199 191 198 190 191 195 195 192 193 197 198 204 195 195 192 194 193 194 202 212 217
209 202 193 192 182 186 186 209 207 193 188 189 188 186 190 191 191 191 191 188 187 185 186 185 184 183 180 181 182 182 184 185 187 191 192 195 193 196 194 194 196 195 197 194 194 194 192 193 196 197 195 199 197 200 200 192 194 196 193 193 198 206 206
202 200 192 195 196 188 186 202 205 193 185 188 189 188 189 191 191 193 192 189 187 186 187 186 185 182 179 181 181 183 182 183 185 188 191 194 193 196 196 193 194 195 195 197 191 194 197 191 198 194 196 201 196 195 199 192 194 200 197 196 197 205 212
194 190 194 200 202 197 187 199 199 188 183 187 189 187 188 191 193 193 192 191 189 190 186 185 183 180 180 180 182 181 181 184 186 188 190 194 195 197 197 193 192 192 195 197 196 190 196 195 196 191 195 198 199 194 198 193 195 199 202 201 199 204 209
204 191 194 198 200 202 199 189 185 186 184 185 188 190 189 190 191 193 193 193 192 190 186 185 182 180 180 182 182 183 183 185 186 188 191 193 195 196 197 197 193 191 194 195 202 194 190 195 195 192 191 197 196 194 196 196 196 198 203 201 201 204 208
76 271 183 190 197 201 205 174 180 183 182 184 189 190 187 189 192 193 194 196 193 189 186 186 183 181 180 182 182 183 185 187 188 190 192 194 196 196 196 199 197 190 193 196 199 199 191 190 194 192 191 194 195 195 194 196 197 199 204 204 202 203 210
204 39 162 178 198 208 204 177 170 176 179 184 190 190 187 190 193 194 193 195 194 191 188 185 184 181 180 183 184 183 185 187 190 190 191 192 195 195 196 199 197 194 191 194 197 198 198 190 193 193 192 192 194 195 193 195 198 197 202 208 206 202 207
318 175 175 147 180 210 209 176 165 177 181 185 189 191 190 191 192 194 192 192 194 192 189 186 185 182 181 183 184 183 185 188 189 191 190 191 193 196 197 198 198 196 190 191 196 198 200 196 191 192 192 192 194 194 192 194 196 197 199 204 208 206 204
200 195 180 180 188 192 199 192 177 179 185 188 190 192 193 191 192 192 191 191 192 194 191 186 185 183 182 183 185 183 184 185 187 190 187 189 191 197 198 197 198 195 191 189 196 198 199 202 195 190 193 192 194 194 194 194 197 197 197 198 203 208 208
210 209 177 181 174 187 197 199 187 184 186 190 193 194 195 191 190 193 192 191 192 193 189 183 186 185 185 185 185 181 180 182 183 186 186 187 189 194 195 197 196 196 195 191 196 197 199 200 200 196 193 193 193 195 196 198 197 192 191 194 198 203 209
11 359 2 2 352 288 183 194 197 190 190 193 198 198 198 193 192 193 194 192 192 192 189 185 184 186 186 185 183 179 177 180 182 183 184 185 186 189 193 195 194 195 193 193 193 197 195 200 202 205 196 195 194 196 199 200 199 180 185 192 200 201 206
346 346 345 353 333 343 318 258 224 202 198 199 199 199 200 197 194 193 196 191 193 192 189 187 186 186 186 183 182 179 178 180 180 182 181 181 184 185 189 192 195 195 194 195 192 195 196 198 201 205 204 200 200 200 202 204 189 172 182 189 196 205 207
324 324 314 318 311 320 308 283 253 210 209 210 205 202 201 198 197 195 196 192 192 190 190 187 186 184 185 185 182 181 179 178 179 180 179 181 181 181 184 189 193 194 195 196 194 192 198 198 198 201 208 207 203 205 203 211 173 173 180 187 193 202 217
313 311 300 303 322 311 299 314 301 303 252 214 212 211 206 201 199 195 195 190 186 192 191 184 184 184 185 184 183 182 181 180 178 180 180 179 179 179 183 187 191 192 193 194 193 194 197 199 198 199 202 208 208 206 208 213 161 174 178 185 191 198 209
312 315 306 300 305 311 315 307 295 279 285 275 226 214 209 203 200 191 190 187 187 189 189 184 183 182 184 185 184 184 186 187 182 180 178 178 178 179 182 184 187 189 191 194 194 195 196 199 198 199 201 204 207 209 210 215 158 172 177 184 190 195 201
328 321 317 315 311 301 294 295 294 286 276 272 262 219 209 204 200 193 189 187 185 186 188 184 182 181 182 185 186 184 185 185 189 181 180 179 179 181 183 184 185 188 190 196 199 198 196 199 202 199 201 201 205 210 209 205 162 175 177 181 187 184 196
322 318 314 311 308 306 304 295 282 277 266 256 259 239 207 203 197 194 187 186 185 185 186 184 183 183 183 186 184 185 186 186 188 183 181 179 181 183 183 183 184 186 188 195 200 199 198 200 203 202 202 202 203 210 208 214 173 175 179 178 180 173 196
326 319 316 315 311 303 301 299 300 294 280 252 245 246 216 198 193 190 184 184 181 183 185 186 186 184 183 185 185 183 184 185 184 181 181 181 184 184 184 184 182 186 186 194 200 205 204 204 205 205 207 204 205 205 206 214 174 176 177 177 175 178 191
328 324 318 313 310 306 304 313 312 302 294 267 239 237 226 195 190 190 185 183 182 184 186 188 185 185 185 186 184 183 185 185 184 183 182 183 185 185 184 184 184 186 187 195 202 209 210 208 209 211 210 211 211 200 206 216 178 175 173 176 176 182 194
332 323 319 313 311 315 316 310 298 285 272 259 241 231 218 196 190 190 185 184 183 184 188 188 187 186 183 181 182 184 185 185 184 184 184 184 184 186 185 185 186 188 189 196 201 205 214 211 213 216 216 215 216 207 206 214 196 172 174 176 179 185 191
329 325 318 317 317 321 306 298 292 283 268 257 238 227 212 199 191 189 184 184 186 187 192 189 183 181 179 181 183 184 185 185 184 185 185 184 185 184 186 186 188 188 188 195 199 204 209 215 216 219 219 221 219 220 212 212 208 171 177 177 179 188 191
330 327 322 315 315 312 307 300 296 284 267 251 235 215 209 199 189 187 180 185 191 192 190 181 179 180 179 181 183 183 183 183 181 183 183 183 181 182 186 186 189 189 190 196 197 202 203 207 216 219 220 222 220 221 222 205 204 166 182 177 182 186 196
329 324 322 320 319 319 316 305 295 283 260 243 223 209 209 196 188 186 180 190 192 191 185 180 179 178 178 178 179 180 181 182 179 180 184 184 182 183 184 184 187 187 188 193 193 196 199 201 208 215 220 221 216 220 218 209 198 162 169 183 182 187 195
327 323 322 326 320 317 320 310 285 272 253 244 217 206 199 191 186 185 185 193 190 190 185 177 178 177 177 177 178 178 179 178 177 179 184 180 179 181 181 182 186 183 186 189 191 193 195 200 203 209 216 217 216 215 210 210 217 163 163 176 187 189 194
325 325 322 322 322 326 322 308 264 257 240 229 206 191 193 195 192 186 190 191 187 189 184 176 175 175 176 176 175 174 176 175 175 179 182 179 177 181 181 182 183 185 187 188 192 195 194 198 200 203 211 215 218 217 217 218 212 208 167 172 184 189 195
325 329 334 335 341 339 335 329 291 306 304 263 189 187 189 198 196 192 192 189 188 186 178 174 173 176 175 175 174 175 175 172 174 176 183 178 180 182 183 182 184 185 186 187 191 196 198 200 203 204 206 213 218 220 218 215 213 212 167 175 180 189 196
331 339 338 343 338 337 341 358 355 343 292 321 208 190 189 199 199 193 192 195 188 185 175 174 171 173 173 173 172 173 173 172 175 175 180 181 181 183 184 184 186 188 187 190 193 196 200 202 203 203 203 203 213 213 216 215 212 215 201 169 175 184 192
328 343 337 333 342 346 355 1 15 24 19 1 13 326 222 200 201 189 196 194 192 185 173 171 170 170 173 171 173 172 174 173 167 172 180 182 184 183 185 188 192 191 188 192 196 199 198 202 200 202 202 206 206 212 213 215 217 215 209 173 172 180 170
334 329 340 348 357 358 1 360 12 21 29 26 23 17 337 197 198 187 192 190 193 171 172 174 169 170 173 173 172 173 172 172 171 181 183 178 188 168 103 207 200 191 189 194 207 208 205 198 198 199 208 209 206 209 218 218 220 220 213 172 167 173 175
331 325 342 355 2 7 6 11 13 8 9 21 31 29 48 20 31 182 188 192 187 173 180 170 173 177 177 174 173 169 171 174 174 181 188 178 182 122 99 61 55 38 40 128 35 48 44 63 185 211 220 218 218 354 229 232 226 87 138 141 159 171 166
327 335 333 358 18 16 14 16 12 12 15 2 18 39 42 41 43 30 335 224 187 176 177 173 176 179 176 175 173 167 167 172 176 178 193 185 173 138 129 112 54 47 53 69 80 72 69 71 69 51 42 77 139 67 49 81 108 107 114 123 132 145 149
335 335 324 6 27 23 14 16 10 9 11 359 3 27 30 35 30 31 38 2 252 192 183 180 180 183 176 175 168 156 160 175 178 177 188 193 184 159 156 153 142 92 47 50 74 79 74 68 58 46 43 47 86 125 94 74 100 114 116 118 121 130 149